TIME,DELAY(SENSOR),PRES,OXYGEN,RAWTEMP,T(OPTODE),TCPHASE,FLUOR,BETA(BETA700),BETA(BETA412),BETA(BETA440),CDOM,C(CSC),ED(ED412.20),ED(ED444.00),ED(ED489.60),ED(ED554.30),LU(LU412.10),LU(LU443.90),LU(LU489.70),LU(LU554.70),COMP,TILTX,TILTY,CHECK
1359773523,5810,869.5599975585938000,33.6312713623046900,560.2050781250000000,4.4795398712158200,56.5054588317871100,55,101,100,78,83,15542,0,0,0,0,2147121216,2147769782,2147574217,2147570486,2689,3,13,49425
1359777119,5811,941.2500000000000000,39.7754516601562500,566.1317749023438000,4.2957019805908200,55.6071014404296900,55,97,100,79,81,15539,0,0,0,0,2147123602,2147775853,2147575826,2147566235,3527,3,13,18578
1359780719,5808,952.2700195312500000,40.4802284240722660,567.6387939453125000,4.2489128112792970,55.5146903991699200,56,98,101,77,82,15536,0,0,0,0,2147122157,2147772873,2147571949,2147567670,113,3,13,4923
1359784319,5807,985.4899902343750000,41.8649291992187500,569.8397216796875000,4.1805419921875000,55.3399314880371100,55,97,99,77,82,15541,0,0,0,0,2147121910,2147773878,2147578185,2147568960,364,2,13,9853
1359787919,5809,987.8400268554688000,41.8885612487793000,570.3580932617188000,4.1644330024719240,55.3369407653808600,55,97,100,78,81,15536,0,0,0,0,2147127579,2147774902,2147572013,2147567277,93,2,13,11013
1359791519,5810,990.5100097656250000,42.1156883239746100,570.8632202148438000,4.1487331390380860,55.3134117126464840,55,104,100,78,82,15537,0,0,0,0,2147120566,2147775616,2147573494,2147566637,4,3,13,36066
1359795119,5809,984.3699951171875000,42.1168098449707000,571.0988769531250000,4.1414070129394530,55.3124694824218750,53,100,100,78,82,15537,0,0,0,0,2147121901,2147770368,2147573568,2147565705,3406,2,13,60699
1359798719,5807,992.0499877929688000,41.9147987365722660,570.7628173828125000,4.1518540382385250,55.3430099487304700,55,98,100,77,81,15535,0,0,0,0,2147120612,2147770934,2147576923,2147565321,309,2,13,35051
1359802319,5809,990.8800048828125000,42.0928802490234400,571.6611938476562000,4.1239280700683590,55.3217201232910160,55,97,100,77,82,15536,0,0,0,0,2147121581,2147769206,2147571483,2147572160,108,2,13,51906
1359805919,5808,997.3499755859375000,41.9286308288574200,571.1010131835938000,4.1413440704345700,55.3402290344238300,55,97,101,78,80,15534,0,0,0,0,2147124132,2147776310,2147574948,2147566701,3588,2,13,11953
1359809519,5811,996.8499755859375000,41.7645301818847660,570.6732788085938000,4.1546339988708500,55.3626594543457000,54,100,99,78,83,15536,0,0,0,0,2147126528,2147773668,2147574683,2147567085,35,2,13,23007
1359813119,5812,993.2399902343750000,41.6274185180664060,570.7741699218750000,4.1514987945556640,55.3858413696289060,54,101,100,78,83,15535,0,0,0,0,2147123181,2147767259,2147574528,2147570185,409,3,13,44595
1359816719,5809,986.3300170898438000,41.8888397216796900,571.7595214843750000,4.1208720207214355,55.3531188964843750,55,98,100,77,82,15527,0,0,0,0,2147126857,2147769572,2147575268,2147569197,373,2,13,5767
1359820319,5808,992.8099975585938000,42.2820091247558600,572.7064819335938000,4.0914230346679690,55.3047218322753900,56,100,99,79,81,15530,0,0,0,0,2147124498,2147773878,2147574400,2147569261,211,3,13,7565
1359823919,5806,994.2500000000000000,42.1806983947753900,572.4282226562500000,4.1000771522521970,55.3212890625000000,54,98,100,78,83,15529,0,0,0,0,2147121170,2147775524,2147573238,2147567652,204,2,13,1000
1359827519,5812,998.5100097656250000,41.9599189758300800,571.7355957031250000,4.1216139793396000,55.3462715148925800,56,99,100,78,82,15529,0,0,0,0,2147121563,2147777188,2147574354,2147568036,98,2,13,14606
1359831119,5810,1000.5399780273438000,41.7935104370117200,570.9572143554688000,4.1458129882812500,55.3578109741210940,55,98,99,77,82,15526,0,0,0,0,2147125366,2147770980,2147573449,2147568045,140,2,13,43893
1359834719,5814,1000.7000122070312000,41.3308792114257800,570.9827880859375000,4.1450138092041020,55.4303703308105500,56,100,101,78,82,15529,0,0,0,0,2147126272,2147771913,2147570322,2147567725,3540,2,13,17589
1359838319,5810,999.7800292968750000,41.7194595336914060,570.9362792968750000,4.1464610099792480,55.3702392578125000,55,101,100,78,82,15526,0,0,0,0,2147120804,2147775003,2147568347,2147566829,28,3,13,657
1359841919,5811,991.5499877929688000,41.3476104736328100,571.6522827148438000,4.1242051124572750,55.4366989135742200,54,97,100,78,82,15528,0,0,0,0,2147127716,2147774610,2147576283,2147570870,3214,2,13,34778
1359845519,5807,1000.7899780273438000,41.6724395751953100,571.9882812500000000,4.1137537956237790,55.3882789611816400,55,98,100,78,83,15527,0,0,0,0,2147124864,2147768722,2147571766,2147569042,170,2,13,14444
1359849119,5809,1003.2000122070312000,42.0066795349121100,571.9655151367188000,4.1144638061523440,55.3391304016113300,55,100,100,77,81,15527,0,0,0,0,2147123812,2147775853,2147571355,2147569133,287,2,13,52373
1359852719,5812,997.4799804687500000,42.0884017944335940,572.8925170898438000,4.0856380462646480,55.3360481262207000,55,98,100,78,82,15523,0,0,0,0,2147123565,2147777270,2147575369,2147567222,35,2,13,39005
1359856319,5809,994.7800292968750000,42.1580200195312500,572.7490844726562000,4.0900969505310060,55.3243293762207000,55,99,100,78,82,15524,0,0,0,0,2147124233,2147770569,2147572608,2147567003,129,3,13,5711
1359859919,5810,997.0300292968750000,42.4994087219238300,573.2026977539062000,4.0759930610656740,55.2837982177734400,55,99,99,79,82,15522,0,0,0,0,2147122697,2147770377,2147578569,2147570368,3517,2,13,11089
1359863519,5812,994.4799804687500000,42.6841888427734400,573.5703125000000000,4.0645599365234375,55.2575416564941400,55,100,100,78,83,15525,0,0,0,0,2147125961,2147770011,2147574354,2147572809,25,2,13,55896
1359867119,5811,995.6199951171875000,43.2343215942382800,573.6752929687500000,4.0612931251525880,55.1811485290527340,55,99,100,78,82,15526,0,0,0,0,2147126006,2147774601,2147571456,2147567259,13,2,13,64474
1359870719,5812,993.1500244140625000,43.2182388305664060,574.0244140625000000,4.0504298210144040,55.1893882751464840,55,97,99,78,81,15523,0,0,0,0,2147126299,2147769408,2147575012,2147568630,3499,3,13,6404
1359874319,5808,998.9699707031250000,42.9612388610839840,573.5709228515625000,4.0645389556884770,55.2209892272949200,55,97,100,77,83,15523,0,0,0,0,2147123072,2147774244,2147580032,2147567140,74,3,13,52527
1359877919,5809,1010.9199829101562000,41.8616104125976560,571.3801269531250000,4.1326661109924320,55.3577690124511700,55,100,101,77,81,15522,0,0,0,0,2147125513,2147767149,2147573266,2147572818,249,2,13,18834
1359881519,5810,1010.4699707031250000,41.0577201843261700,570.0089111328125000,4.1752848625183105,55.4610099792480500,54,97,100,77,83,15522,0,0,0,0,2147122944,2147773814,2147571401,2147569024,202,3,13,25941
1359885119,5810,1009.4400024414062000,40.4467315673828100,570.2628173828125000,4.1673951148986820,55.5521697998046900,55,98,100,77,81,15521,0,0,0,0,2147124736,2147777654,2147578916,2147570651,123,2,13,10851
1359888719,5808,1006.8099975585938000,41.2863807678222660,571.2026977539062000,4.1381797790527340,55.4388008117675800,55,105,99,78,81,15519,0,0,0,0,2147127597,2147773412,2147572406,2147568548,229,2,13,62809
1359892319,5809,1002.6300048828125000,41.7328987121582000,571.3765258789062000,4.1327757835388180,55.3762397766113300,55,98,100,79,83,15519,0,0,0,0,2147122925,2147769956,2147573138,2147568932,429,2,13,31834
1359895919,5808,1004.0000000000000000,41.5853691101074200,571.4765014648438000,4.1296691894531250,55.3981018066406250,54,99,100,78,81,15518,0,0,0,0,2147124717,2147773220,2147573293,2147567661,117,3,13,54214
1359899519,5807,1003.9199829101562000,41.3985595703125000,571.6953735351562000,4.1228618621826170,55.4276008605957000,54,98,98,78,83,15518,0,0,0,0,2147125568,2147769709,2147573988,2147567570,3205,2,13,6609
1359903119,5810,1004.8400268554688000,41.6358909606933600,571.7664794921875000,4.1206531524658200,55.3949012756347660,55,97,100,77,81,15513,0,0,0,0,2147122989,2147770642,2147572781,2147568950,3558,2,13,53236
1359906719,5810,1002.9799804687500000,41.9074707031250000,571.5870971679688000,4.1262297630310060,55.3530311584472660,54,97,103,78,82,15517,0,0,0,0,2147125394,2147774372,2147573302,2147570422,3487,2,13,32145
1359910319,5811,1002.2899780273438000,41.8788414001464840,573.1171875000000000,4.0786499977111820,55.3688087463378900,56,97,100,78,82,15517,0,0,0,0,2147122825,2147775030,2147577718,2147566829,95,2,13,17114
1359913919,5811,1000.6699829101562000,42.2408905029296900,573.6057128906250000,4.0634589195251465,55.3266105651855500,55,98,100,77,82,15515,0,0,0,0,2147127222,2147775186,2147574893,2147571008,3362,2,13,4653
1359917519,5812,1001.6799926757812000,42.2580108642578100,573.6121215820312000,4.0632572174072270,55.3207893371582000,55,99,99,77,81,15514,0,0,0,0,2147124626,2147773796,2147576265,2147570148,78,3,13,27036
1359918955,5812,1001.3400268554688000,42.3840103149414060,573.6329956054688000,4.0626091957092285,55.3034210205078100,55,99,100,77,83,15519,0,0,0,0,2147121837,2147773997,2147576484,2147570925,83,2,13,37689
